| time (UTC) | temp F | wind direction | speed knots | gust knots | rain 1hr in | rain 24hr in | rain mn in | humidity % | barometer mb |
| 20260505035521 | 63 | 0.0 | 0.0 | 0.00 | 0.00 | 0.00 | 58 | ||
| 20260505034526 | 63 | 0.0 | 0.0 | 0.00 | 0.00 | 0.00 | 59 | ||
| 20260505033522 | 65 | 0.0 | 0.0 | 0.00 | 0.00 | 0.00 | 56 | ||
| 20260505032519 | 64 | 0.0 | 0.0 | 0.00 | 0.00 | 0.00 | 57 | ||
| 20260505031524 | 62 | 0.0 | 0.0 | 0.00 | 0.00 | 0.00 | 59 | ||
| 20260505030520 | 63 | 0.0 | 0.0 | 0.00 | 0.00 | 0.00 | 59 | ||
| 20260505025525 | 64 | 0.0 | 0.0 | 0.00 | 0.00 | 0.00 | 58 | ||
| 20260505024521 | 65 | 0.0 | 0.0 | 0.00 | 0.00 | 0.00 | 55 | ||
| 20260505023526 | 67 | 0.0 | 0.0 | 0.00 | 0.00 | 0.00 | 54 | ||
| 20260505022522 | 64 | 0.0 | 0.0 | 0.00 | 0.00 | 0.00 | 57 | ||
| 20260505021519 | 65 | 0.0 | 0.0 | 0.00 | 0.00 | 0.00 | 57 | ||
| 20260505020524 | 64 | 0.0 | 0.0 | 0.00 | 0.00 | 0.00 | 59 | ||
| 20260505015520 | 61 | 0.0 | 0.0 | 0.00 | 0.00 | 0.00 | 66 | ||
| 20260505014525 | 62 | 0.0 | 0.0 | 0.00 | 0.00 | 0.00 | 67 | ||
| 20260505013521 | 61 | 0.0 | 0.0 | 0.00 | 0.00 | 0.00 | 68 | ||
| 20260505012526 | 64 | 0.0 | 0.0 | 0.00 | 0.00 | 0.00 | 62 | ||
| 20260505011522 | 64 | 0.0 | 0.0 | 0.00 | 0.00 | 0.00 | 65 | ||
| 20260505010518 | 63 | 0.0 | 0.0 | 0.00 | 0.00 | 0.00 | 71 | ||
| 20260505005523 | 62 | 0.0 | 0.0 | 0.00 | 0.00 | 0.00 | 74 | ||
| 20260505004520 | 61 | 0.0 | 0.0 | 0.00 | 0.00 | 0.00 | 78 | ||
| 20260505003525 | 61 | 0.0 | 0.0 | 0.00 | 0.00 | 0.00 | 79 | ||
| 20260505002521 | 60 | 0.0 | 0.0 | 0.00 | 0.00 | 0.00 | 81 | ||
| 20260505001526 | 60 | 0.0 | 0.0 | 0.00 | 0.00 | 0.00 | 85 | ||
| 20260505000522 | 59 | 0.0 | 0.0 | 0.00 | 0.00 | 0.00 | 87 | ||
| 20260504235518 | 58 | 0.0 | 0.0 | 0.00 | 0.00 | 0.00 | 90 | ||
| 20260504234523 | 57 | 0.0 | 0.0 | 0.00 | 0.00 | 0.00 | 92 | ||
| 20260504233520 | 57 | 0.0 | 0.0 | 0.00 | 0.00 | 0.00 | 92 | ||
| 20260504232525 | 56 | 0.0 | 0.0 | 0.00 | 0.00 | 0.00 | 94 | ||
| 20260504231521 | 56 | 0.0 | 0.0 | 0.00 | 0.00 | 0.00 | 95 | ||
| 20260504230526 | 55 | 0.0 | 0.0 | 0.00 | 0.00 | 0.00 | 95 | ||
| 20260504225522 | 55 | 0.0 | 0.0 | 0.00 | 0.00 | 0.00 | 95 | ||
| 20260504224518 | 55 | 0.0 | 0.0 | 0.00 | 0.00 | 0.00 | 96 | ||
| 20260504223523 | 54 | 0.0 | 0.0 | 0.00 | 0.00 | 0.00 | 96 | ||
| 20260504222520 | 54 | 0.0 | 0.0 | 0.00 | 0.00 | 0.00 | 96 | ||
| 20260504221525 | 54 | 0.0 | 0.0 | 0.00 | 0.00 | 0.00 | 96 | ||
| 20260504220521 | 54 | 0.0 | 0.0 | 0.00 | 0.00 | 0.00 | 96 | ||
| 20260504215526 | 54 | 0.0 | 0.0 | 0.00 | 0.00 | 0.00 | 96 | ||
| 20260504214522 | 54 | 0.0 | 0.0 | 0.00 | 0.00 | 0.00 | 96 | ||
| 20260504213519 | 53 | 0.0 | 0.0 | 0.00 | 0.00 | 0.00 | 95 | ||
| 20260504212524 | 53 | 0.0 | 0.0 | 0.00 | 0.00 | 0.00 | 95 | ||
| 20260504211520 | 53 | 0.0 | 0.0 | 0.00 | 0.00 | 0.00 | 95 | ||
| 20260504210525 | 53 | 0.0 | 0.0 | 0.00 | 0.00 | 0.00 | 95 | ||
| 20260504205521 | 53 | 0.0 | 0.0 | 0.00 | 0.00 | 0.00 | 95 | ||
| 20260504204526 | 53 | 0.0 | 0.0 | 0.00 | 0.00 | 0.00 | 95 | ||
| 20260504203522 | 53 | 0.0 | 0.0 | 0.00 | 0.00 | 0.00 | 95 | ||
| 20260504202518 | 53 | 0.0 | 0.0 | 0.00 | 0.00 | 0.00 | 95 | ||
| 20260504201523 | 53 | 0.0 | 0.0 | 0.00 | 0.00 | 0.00 | 95 | ||
| 20260504200520 | 53 | 0.0 | 0.0 | 0.00 | 0.00 | 0.00 | 95 | ||
| 20260504195525 | 53 | 0.0 | 0.0 | 0.00 | 0.00 | 0.00 | 95 | ||
| 20260504194521 | 52 | 0.0 | 0.0 | 0.00 | 0.00 | 0.00 | 94 | ||
| 20260504193526 | 53 | 0.0 | 0.0 | 0.00 | 0.00 | 0.00 | 94 | ||
| 20260504192522 | 53 | 0.0 | 0.0 | 0.00 | 0.00 | 0.00 | 94 | ||
| 20260504191527 | 53 | 0.0 | 0.0 | 0.00 | 0.00 | 0.00 | 94 | ||
| 20260504190523 | 54 | 0.0 | 0.0 | 0.00 | 0.00 | 0.00 | 94 | ||
| 20260504185519 | 54 | 0.0 | 0.0 | 0.00 | 0.00 | 0.00 | 94 | ||
| 20260504184524 | 54 | 0.0 | 0.0 | 0.00 | 0.00 | 0.00 | 94 | ||
| 20260504183521 | 54 | 0.0 | 0.0 | 0.00 | 0.00 | 0.00 | 94 | ||
| 20260504182526 | 55 | 0.0 | 0.0 | 0.00 | 0.00 | 0.00 | 94 | ||
| 20260504181522 | 55 | 0.0 | 0.0 | 0.00 | 0.00 | 0.00 | 94 | ||
| 20260504180527 | 54 | 0.0 | 0.0 | 0.00 | 0.00 | 0.00 | 94 | ||
| 20260504175523 | 54 | 0.0 | 0.0 | 0.00 | 0.00 | 0.00 | 94 | ||
| 20260504174519 | 54 | 0.0 | 0.0 | 0.00 | 0.00 | 0.00 | 94 | ||
| 20260504173524 | 54 | 0.0 | 0.0 | 0.00 | 0.00 | 0.00 | 94 | ||
| 20260504172521 | 54 | 0.0 | 0.0 | 0.00 | 0.00 | 0.00 | 94 | ||
| 20260504171526 | 54 | 0.0 | 0.0 | 0.00 | 0.00 | 0.00 | 94 | ||
| 20260504170522 | 54 | 0.0 | 0.0 | 0.00 | 0.00 | 0.00 | 94 | ||
| 20260504150520 | 53 | 0.0 | 0.0 | 0.00 | 0.00 | 0.00 | 93 | ||
| 20260504140524 | 55 | 0.0 | 0.0 | 0.00 | 0.00 | 0.00 | 91 | ||
| 20260504130519 | 57 | 0.0 | 0.0 | 0.00 | 0.00 | 0.00 | 90 | ||
| 20260504110527 | 57 | 0.0 | 0.0 | 0.00 | 0.00 | 0.00 | 80 | ||
| 20260504100522 | 59 | 0.0 | 0.0 | 0.00 | 0.00 | 0.00 | 76 | ||
| 20260504081524 | 60 | 0.0 | 0.0 | 0.00 | 0.00 | 0.00 | 78 | ||
| 20260504080520 | 61 | 0.0 | 0.0 | 0.00 | 0.00 | 0.00 | 77 | ||
| 20260504050523 | 65 | 0.0 | 0.0 | 0.00 | 0.00 | 0.00 | 59 | ||
| 20260504045519 | 65 | 0.0 | 0.0 | 0.00 | 0.00 | 0.00 | 63 | ||
| 20260504044524 | 65 | 0.0 | 0.0 | 0.00 | 0.00 | 0.00 | 62 | ||
| 20260504043520 | 65 | 0.0 | 0.0 | 0.00 | 0.00 | 0.00 | 63 | ||
| 20260504042525 | 65 | 0.0 | 0.0 | 0.00 | 0.00 | 0.00 | 64 | ||
| 20260504041521 | 64 | 0.0 | 0.0 | 0.00 | 0.00 | 0.00 | 65 | ||
| 20260504040526 | 64 | 0.0 | 0.0 | 0.00 | 0.00 | 0.00 | 63 |